Starlink 5803

operational
NORAD ID: 56008 Int'l Des: 2023-042 Owner: SPXS Country: US Constellation: starlink
LEOCIRCULAR

关于 Starlink 5803

正在加载描述...

实时位置

正在加载3D地球...

即将过境

高度历史

Altitude vs Time

uPlot chart will show altitude changes over time

两行轨道根数

1 56008U 23042Y 25308.55561182 -.00000520 00000-0 -23386-4 0 9996
2 56008 43.0051 16.3235 0001603 271.4889 88.5770 15.02547143144076
Epoch: Nov 4, 2025 • Age: 16 hours

当前状态

高度 563.0 km
速度 7.59 km/s
星下点 41.86°N, 11.11°W
发射日期 Mar 24, 2023
运行时间 2.6 years
类型 internet

技术详情

分类 Payload
质量 305.00 kg
干质量 290.00 kg
总质量 305.00 kg
长度 0.20 m
直径 2.80 m
跨度 9.00 m
形状 Box + pan
制造商 SPXS
平台类型 Starlink
阶段状态 In Orbit
所有者/国家 SPXS/US

大型星座

Loading constellations...